Theta_e
299 302 304 302 303 304 300 299 295 298 311 316 317 317 319 325 329 337 337 338 339 340 339 337 337 337 337 336 331 329 328 327 324 324 323 322 320 317 318 318 318 313 309 307
298 303 303 302 303 303 303 304 302 302 302 321 321 322 327 331 329 336 338 338 339 339 337 336 336 337 334 330 329 329 326 325 324 323 322 321 318 317 316 316 317 315 311 307
293 301 301 297 301 302 303 304 304 299 303 308 320 323 324 324 325 336 338 338 338 337 337 336 337 335 330 330 330 328 325 324 323 322 318 317 317 316 315 314 315 314 315 309
296 298 291 301 307 308 306 307 306 304 306 309 327 326 325 324 336 338 338 338 339 338 338 337 337 333 330 329 328 326 323 322 322 319 317 317 316 315 315 315 314 313 312 313
298 298 302 305 307 307 304 304 309 306 309 326 332 334 325 341 341 339 339 340 340 339 338 337 335 331 328 327 325 324 321 321 321 318 316 316 315 315 315 314 314 314 314 311
300 297 296 306 315 316 313 300 321 313 309 324 329 322 324 331 337 340 341 340 340 339 338 335 332 329 325 323 322 320 320 320 321 319 317 316 316 314 315 316 316 315 316 315
301 299 304 313 319 321 307 308 323 324 321 311 319 327 332 323 328 342 341 340 340 339 335 331 329 327 324 322 320 320 321 321 321 319 317 317 316 317 315 316 315 315 316 315
303 299 297 318 319 315 318 322 325 324 330 326 331 330 328 334 338 340 339 339 339 333 330 329 328 326 323 321 322 320 319 320 319 318 320 319 316 315 316 316 315 315 317 317
307 307 316 319 314 320 324 321 323 321 332 324 327 323 335 338 332 339 339 337 333 330 328 328 328 325 322 321 322 320 317 317 317 317 318 317 317 317 316 317 316 316 317 315
310 312 316 319 320 320 319 320 324 327 329 322 318 320 325 328 331 336 336 332 332 329 327 326 327 326 324 322 322 320 318 317 317 318 317 317 317 318 316 315 314 306 304 306
310 313 315 320 319 318 319 322 326 328 332 327 324 324 325 328 337 335 334 332 331 328 328 326 325 323 323 323 322 319 318 317 317 316 313 315 315 314 315 311 305 302 305 307
308 313 313 316 322 321 321 320 322 324 326 328 332 333 337 336 337 334 332 331 329 327 325 324 322 321 322 322 320 318 316 316 314 314 313 314 314 314 311 311 309 306 306 307
316 321 321 320 324 325 322 322 322 322 326 323 329 332 339 336 335 330 331 329 328 325 323 323 321 320 320 320 320 318 315 315 314 314 310 311 312 313 308 310 305 304 301 301
324 324 320 325 318 325 328 327 326 328 328 330 325 326 337 336 332 332 329 328 326 324 323 322 321 320 322 321 321 320 318 315 315 311 314 313 313 316 317 311 309 308 305 302
323 324 322 324 322 322 325 327 324 325 340 336 336 337 335 332 330 329 329 328 325 323 322 321 320 320 322 321 321 318 317 317 312 311 314 313 310 310 310 312 315 311 312 308
314 319 320 321 320 324 327 329 328 330 337 336 335 335 334 332 331 329 327 324 321 320 320 320 320 321 321 322 317 315 315 316 314 310 311 312 312 313 314 315 313 311 311 314
314 313 317 319 325 328 329 329 329 334 335 335 333 333 331 330 328 325 324 324 323 320 320 319 320 320 321 318 315 315 315 312 316 310 308 310 312 315 313 313 311 308 312 310
318 320 319 319 321 327 329 330 336 333 333 333 332 331 328 325 322 323 323 322 319 318 320 320 319 320 318 316 315 316 313 314 312 311 311 312 314 313 310 311 314 314 311 306
315 320 322 327 329 328 329 335 333 332 333 332 330 328 326 325 322 318 317 316 315 314 319 321 324 321 318 319 320 318 317 315 313 313 315 316 315 315 312 312 309 308 307 306
315 322 324 325 333 333 332 333 333 332 332 331 328 325 322 320 317 315 315 314 316 316 321 320 318 316 315 320 321 313 315 316 317 316 315 315 314 312 314 311 310 309 306 305
316 322 324 327 334 332 332 332 331 328 327 327 323 320 319 319 316 316 314 313 315 319 318 319 316 316 316 318 315 311 312 313 316 315 315 314 315 311 314 310 307 306 305 305
319 319 322 334 332 331 333 333 329 328 327 325 323 320 318 316 316 316 317 316 318 317 315 314 315 319 319 324 313 312 314 315 317 316 314 317 314 313 308 306 305 305 305 304
328 327 332 331 328 328 330 328 328 327 324 323 321 320 318 318 317 315 314 315 317 315 313 313 317 318 319 318 316 316 318 318 315 314 315 314 314 312 307 306 304 305 304 303
324 329 328 329 329 328 326 328 328 328 324 323 321 319 318 316 315 317 319 315 313 313 314 314 316 315 319 314 315 315 315 316 317 311 310 307 310 308 307 306 304 304 303 301
328 327 327 326 325 324 323 322 321 320 320 319 319 318 318 317 315 318 318 317 312 315 316 315 315 314 313 315 314 316 318 318 315 311 310 308 308 307 306 305 304 303 302 301
326 325 325 325 324 323 322 321 319 319 318 317 318 319 317 318 319 318 317 315 314 314 317 314 314 313 314 315 316 318 317 316 310 311 310 309 308 305 306 305 304 303 303 302
326 318 325 324 324 323 322 321 319 318 317 317 317 319 319 320 319 318 315 315 314 313 314 316 315 314 316 316 318 318 318 319 313 313 310 310 307 306 305 304 304 303 302 302
Wind_Speed
9 10 15 12 9 10 10 10 6 7 16 19 23 16 8 5 5 14 17 18 16 18 14 14 12 11 8 10 10 11 10 10 8 8 8 7 7 7 7 7 7 7 7 7
8 12 13 14 12 10 7 11 8 7 7 22 23 10 9 13 9 12 19 20 18 18 18 16 13 11 9 12 10 11 10 9 8 8 7 7 7 7 7 5 5 7 6 6
8 9 10 9 8 8 9 5 7 7 11 5 14 24 22 22 18 18 17 17 17 17 16 13 13 9 12 11 10 11 11 8 8 7 7 7 7 7 6 5 4 5 5 5
6 5 7 10 10 8 9 10 9 7 6 2 24 28 22 16 19 17 17 14 17 15 14 13 12 11 11 10 10 11 10 8 7 8 7 6 6 6 5 4 5 4 4 4
2 3 7 8 10 7 7 12 8 11 8 15 19 17 2 19 17 21 24 21 20 16 15 15 15 12 11 9 10 10 9 8 8 8 7 7 6 5 4 4 3 4 4 4
5 3 6 8 11 10 13 8 17 9 9 21 15 11 13 15 19 19 20 21 19 19 17 14 15 15 12 9 8 8 8 8 8 8 7 7 6 5 3 2 3 2 5 6
6 5 8 11 13 9 8 6 10 16 8 5 11 11 27 19 13 18 24 24 20 18 15 17 16 16 13 9 7 7 8 7 7 7 7 7 5 3 3 3 1 3 3 4
6 5 9 14 7 7 7 7 6 11 8 10 6 20 24 13 6 6 19 18 20 18 17 16 16 14 12 10 8 8 8 7 7 7 5 5 5 3 2 2 3 5 4 5
6 5 4 12 3 8 12 9 8 6 8 6 17 22 20 22 27 19 13 10 17 18 17 14 13 13 12 9 11 9 8 7 7 6 4 6 5 5 3 3 3 5 6 4
10 7 18 7 11 13 16 16 20 14 9 6 14 14 17 20 20 20 15 19 12 16 16 14 12 12 14 13 11 9 8 7 6 6 5 6 4 3 2 4 4 4 1 3
9 6 15 10 13 12 19 24 23 27 9 6 9 14 17 12 15 16 14 17 16 14 14 13 13 13 13 13 10 8 7 6 6 5 6 5 5 5 5 6 5 2 3 3
7 4 6 10 5 9 16 19 25 17 7 12 9 8 5 16 16 17 18 19 16 15 14 13 14 12 11 10 9 8 7 5 5 5 5 5 4 4 9 8 9 8 8 5
5 4 9 12 3 8 7 18 25 29 22 7 10 17 8 7 13 17 20 21 20 18 15 16 13 11 10 8 8 8 7 6 4 5 4 5 4 5 5 5 4 9 10 11
5 5 10 15 11 11 13 9 27 33 33 22 23 14 21 19 13 15 14 14 16 16 14 12 12 12 10 9 8 7 5 3 5 5 5 6 5 5 5 5 6 7 11 13
15 20 12 9 22 13 11 18 25 24 10 26 23 19 21 16 16 13 14 14 16 15 13 13 11 11 10 9 7 7 4 3 4 1 2 4 3 2 4 4 4 6 5 3
12 10 11 17 21 17 17 7 9 10 10 20 20 19 16 16 18 18 15 15 16 12 12 12 11 9 8 8 10 5 4 6 3 2 1 3 3 4 4 4 5 3 2 3
9 11 8 10 7 7 1 3 7 3 13 15 18 17 20 15 16 19 15 12 11 8 7 8 6 6 7 6 7 4 4 4 6 3 3 4 4 5 4 2 2 2 2 3
14 11 10 10 12 1 3 4 11 11 12 16 16 18 19 17 16 16 14 14 11 8 8 9 9 8 6 6 5 2 2 4 4 5 5 5 5 4 2 1 2 4 3 2
19 14 13 9 5 3 2 9 15 8 11 16 18 15 15 14 15 13 16 15 12 9 6 8 12 8 6 6 5 3 4 5 5 5 6 6 4 3 2 3 2 3 4 4
19 11 9 7 5 13 11 10 14 11 11 14 15 14 14 11 11 10 9 9 8 9 11 10 9 7 6 4 6 3 4 3 4 7 3 5 4 3 2 5 5 3 3 3
16 11 7 6 13 14 12 12 10 12 13 13 15 13 13 12 11 11 10 6 5 9 10 12 6 3 4 5 3 3 3 4 5 2 4 2 2 1 2 4 5 4 3 3
12 12 6 10 11 10 12 14 8 8 9 11 13 14 14 13 11 7 6 6 5 10 8 5 4 5 5 8 4 3 5 4 3 2 2 2 4 2 4 4 4 3 3 2
12 10 13 11 14 14 15 15 11 11 11 11 13 12 10 8 8 7 6 6 7 9 6 5 6 9 9 5 4 5 5 2 3 5 1 1 4 4 4 4 3 3 2 3
11 4 14 12 11 12 13 11 10 10 12 10 10 8 9 7 4 4 6 10 13 11 6 5 7 11 8 4 3 3 2 2 3 2 4 4 5 4 4 4 3 2 4 3
10 6 14 16 14 11 14 13 13 12 10 8 7 6 7 4 5 4 8 7 12 8 4 8 13 11 5 4 3 4 3 3 5 4 5 4 6 5 4 4 4 3 2 1
5 6 9 15 15 11 10 9 9 7 7 6 4 4 3 3 5 6 6 8 7 8 4 5 5 5 5 5 6 6 5 5 5 5 5 4 5 4 5 5 4 3 3 4
8 8 10 10 11 10 9 11 9 9 7 5 5 4 5 7 8 7 7 6 5 4 3 4 5 6 5 5 5 6 5 4 8 6 3 4 5 4 5 5 5 4 4 5
Wind_Direction
292 292 294 273 257 229 207 220 199 248 157 187 201 188 175 104 86 137 140 142 145 139 137 145 145 153 148 148 116 121 112 104 103 100 100 99 95 93 92 87 103 93 68 47
294 293 297 301 293 295 264 210 227 236 218 192 205 132 150 149 179 188 154 150 145 143 142 149 157 151 137 124 127 123 115 112 114 112 110 108 106 113 104 93 104 120 105 84
259 281 305 316 277 289 294 281 196 224 237 188 151 158 179 185 184 183 152 147 138 143 142 150 150 144 132 135 127 115 117 120 122 119 116 119 126 114 115 120 104 91 124 111
228 258 278 259 289 288 291 286 287 300 279 272 173 178 174 175 183 151 139 154 151 154 147 153 141 131 127 127 119 123 125 127 127 122 127 131 121 129 136 136 144 152 124 132
166 235 253 286 281 275 258 278 263 244 257 104 110 120 56 161 158 155 167 156 151 154 152 155 142 134 122 124 127 130 136 137 134 133 140 142 148 162 180 167 196 184 172 166
298 260 263 251 338 315 279 265 346 287 213 136 148 151 188 186 167 168 154 147 144 151 156 151 138 131 124 134 135 138 141 144 137 140 149 156 152 157 204 209 229 198 192 203
261 233 262 20 329 19 71 267 339 2 330 165 182 193 181 178 180 167 146 146 142 154 147 138 136 132 135 133 143 142 131 130 132 142 152 154 166 188 204 247 266 268 258 255
309 216 270 352 9 59 274 305 346 13 355 58 61 88 105 99 92 32 134 142 143 134 138 139 136 134 135 133 137 129 128 129 132 143 146 151 174 216 254 254 280 284 271 262
32 289 53 22 2 341 346 339 351 4 41 90 102 90 104 111 107 96 260 136 128 132 134 134 133 136 130 135 130 138 131 138 142 160 172 181 192 216 229 254 260 269 267 273
345 329 356 6 335 6 353 339 334 329 125 97 92 100 127 150 151 167 162 131 136 134 133 136 136 134 135 136 140 139 143 151 159 171 188 183 200 226 239 253 247 224 9 22
258 287 347 41 353 351 348 345 338 340 94 172 140 153 148 157 139 136 139 132 137 140 139 137 124 133 141 133 141 141 152 159 169 178 176 196 218 208 227 230 170 191 225 202
241 241 205 267 292 333 12 340 322 315 303 196 154 127 120 125 140 140 134 139 139 141 136 129 129 138 134 130 137 148 154 164 182 189 196 201 207 259 246 205 214 220 230 212
204 278 250 243 279 288 35 344 314 296 285 169 132 122 91 146 155 136 141 148 151 139 134 129 134 138 142 148 140 154 167 183 192 200 200 198 212 206 221 277 249 252 249 247
206 126 291 249 241 211 135 117 266 271 295 231 166 179 156 165 144 136 138 125 119 121 121 124 133 145 158 145 147 168 175 204 207 195 199 197 197 209 194 208 220 239 247 233
183 189 180 220 277 231 206 198 240 258 277 162 166 146 131 125 119 114 118 121 120 121 125 134 146 159 154 139 150 153 161 240 226 162 273 177 195 231 243 251 203 230 243 246
290 262 221 221 223 233 206 248 294 329 170 97 114 114 103 118 119 113 113 121 124 137 150 142 149 171 156 145 136 162 200 190 172 157 142 244 246 250 253 266 254 278 288 170
252 279 307 302 315 353 172 312 316 251 105 109 113 109 111 110 106 107 114 117 114 116 116 114 131 135 128 143 135 172 187 199 207 199 227 241 240 239 208 225 245 278 179 150
273 264 245 246 268 31 336 313 86 119 121 122 118 118 117 121 126 125 119 112 105 106 124 139 143 138 137 168 177 207 236 216 201 215 229 244 253 241 213 206 334 109 217 226
253 245 259 244 210 177 275 87 124 138 126 130 126 123 121 128 118 117 122 125 132 126 142 137 144 142 167 186 172 225 256 226 195 227 228 242 258 158 272 22 350 80 95 131
233 249 240 269 201 104 97 121 129 121 122 118 115 118 120 118 119 126 122 130 150 146 143 155 139 162 186 185 179 225 282 335 263 229 195 172 144 187 185 167 153 106 100 84
217 235 227 207 126 130 123 122 121 127 131 138 127 123 117 112 105 106 109 133 184 161 123 143 144 163 181 162 204 247 293 293 296 91 164 184 82 256 36 96 84 93 77 95
205 225 213 134 127 116 122 119 125 122 109 110 117 118 118 124 133 140 144 134 154 130 132 150 153 199 202 181 189 227 250 272 174 77 81 146 193 110 111 98 101 86 100 88
334 190 135 113 120 117 112 116 126 120 129 135 123 130 137 143 143 138 132 154 138 139 134 147 182 194 198 174 181 229 249 184 237 236 166 114 146 135 124 134 129 116 120 94
323 90 107 100 96 107 116 127 128 111 108 110 115 122 131 134 127 136 139 137 150 148 132 188 194 186 174 163 218 250 206 262 49 71 102 81 111 99 85 104 120 91 112 89
281 148 126 112 106 103 98 99 96 97 102 105 105 109 134 138 140 159 147 155 143 134 190 182 182 180 186 198 224 251 222 235 188 179 134 126 133 144 148 124 111 126 148 154
160 134 133 125 123 120 120 120 116 120 121 122 129 129 177 175 134 118 121 134 149 184 177 163 181 192 202 205 226 240 205 188 191 195 157 150 150 150 132 124 118 118 124 111
160 160 131 123 115 128 149 124 138 139 139 155 151 182 161 121 120 122 133 148 160 185 194 192 202 207 210 214 231 248 254 176 155 187 190 166 155 148 138 133 131 130 120 143